WetterOnline ( https://www.wetteronline.de )

Wetter aktuell Gersfeld

Aktuelles Wetter: Wasserkuppe (925m)

6-stündlich | Neueste Meldungen
Ortszeit Temperatur Wetter
So, 07.08. 14:00 19.3° C wolkenlos
So, 07.08. 8:00 12.7° C wolkenlos
So, 07.08. 2:00 11.4° C wolkenlos
Sa, 06.08. 20:00 15.2° C wolkenlos
Sa, 06.08. 14:00 15.1° C wolkenlos
Sa, 06.08. 8:00 9.4° C wolkenlos
Sa, 06.08. 2:00 11.0° C bewölkt
Fr, 05.08. 20:00 13.2° C bewölkt
Ortszeit Temperatur Wetter
So, 07.08. 17:30 20.3° C fast wolkenlos
So, 07.08. 17:20 20.3° C fast wolkenlos
So, 07.08. 17:10 20.0° C leicht bewölkt
So, 07.08. 17:00 19.8° C leicht bewölkt
So, 07.08. 16:50 19.8° C leicht bewölkt
So, 07.08. 16:40 20.4° C wolkig
So, 07.08. 16:30 19.6° C fast wolkenlos
So, 07.08. 16:00 20.2° C wolkenlos
So, 07.08. 15:30 20.1° C wolkenlos
So, 07.08. 15:00 19.9° C fast wolkenlos
So, 07.08. 14:30 19.4° C wolkenlos
Ortszeit Relative Feuchte Sichtweite
So, 07.08. 14:00 37% 55 km
So, 07.08. 8:00 55% 50 km
So, 07.08. 2:00 56% >70 km
Sa, 06.08. 20:00 45% 50 km
Sa, 06.08. 14:00 45% 40 km
Sa, 06.08. 8:00 78% 65 km
Sa, 06.08. 2:00 90% 35 km
Fr, 05.08. 20:00 94% 15 km
Ortszeit Relative Feuchte Sichtweite
So, 07.08. 17:30 34% 45 km
So, 07.08. 17:20 34% -
So, 07.08. 17:10 35% -
So, 07.08. 17:00 33% 65 km
So, 07.08. 16:50 33% -
So, 07.08. 16:40 33% -
So, 07.08. 16:30 34% >70 km
So, 07.08. 16:00 32% >70 km
So, 07.08. 15:30 33% 65 km
So, 07.08. 15:00 35% 55 km
So, 07.08. 14:30 36% >70 km
Ortszeit Niederschlagsmenge Niederschlagsart
So, 07.08. 14:00 0.0 l/m2 in 6 Std. -
So, 07.08. 8:00 0.0 l/m2 in 12 Std. -
So, 07.08. 2:00 0.0 l/m2 in 6 Std. -
Sa, 06.08. 20:00 0.0 l/m2 in 12 Std. -
Sa, 06.08. 14:00 0.0 l/m2 in 6 Std. -
Sa, 06.08. 8:00 0.0 l/m2 in 12 Std. -
Sa, 06.08. 2:00 0.0 l/m2 in 6 Std. -
Fr, 05.08. 20:00 0.3 l/m2 in 12 Std. Regen
Ortszeit Niederschlagsmenge Niederschlagsart
So, 07.08. 17:30 0.0 l/m2 in 1 Std. -
So, 07.08. 17:20 keine Meldung -
So, 07.08. 17:10 keine Meldung -
So, 07.08. 17:00 0.0 l/m2 in 1 Std. -
So, 07.08. 16:50 keine Meldung -
So, 07.08. 16:40 keine Meldung -
So, 07.08. 16:30 0.0 l/m2 in 1 Std. -
So, 07.08. 16:00 0.0 l/m2 in 1 Std. -
So, 07.08. 15:30 0.0 l/m2 in 1 Std. -
So, 07.08. 15:00 0.0 l/m2 in 1 Std. -
So, 07.08. 14:30 0.0 l/m2 in 1 Std. -
Ortszeit Stärke Spitze Richtung
km/h Bft. km/h Grad Sektor
So, 07.08. 14:00 14 3 36 20° N
So, 07.08. 8:00 22 4 36 120° SO
So, 07.08. 2:00 22 4 36 100° O
Sa, 06.08. 20:00 18 3 29 30° NO
Sa, 06.08. 14:00 11 2 36 40° NO
Sa, 06.08. 8:00 22 4 32 20° N
Sa, 06.08. 2:00 22 4 43 10° N
Fr, 05.08. 20:00 32 5 40 360° N
Ortszeit Stärke Spitze Richtung
km/h Bft. km/h Grad Sektor
So, 07.08. 17:30 14 3 25 30° NO
So, 07.08. 17:20 14 3 - 30° NO
So, 07.08. 17:10 17 3 - 10° N
So, 07.08. 17:00 18 3 29 10° N
So, 07.08. 16:50 18 3 - 10° N
So, 07.08. 16:40 14 3 - 10° N
So, 07.08. 16:30 13 3 24 40° NO
So, 07.08. 16:00 13 3 28 50° NO
So, 07.08. 15:30 14 3 25 20° N
So, 07.08. 15:00 14 3 29 30° NO
So, 07.08. 14:30 11 2 29 60° NO
Ortszeit Untergrenze Bedeckung Gattung
total tief tief mittel hoch
So, 07.08. 14:00 - 0/8 0/8 - - -
So, 07.08. 8:00 - 0/8 0/8 - - -
So, 07.08. 2:00 - 0/8 0/8 - - -
Sa, 06.08. 20:00 - 0/8 0/8 - - -
Sa, 06.08. 14:00 - 0/8 0/8 - - -
Sa, 06.08. 8:00 - 0/8 0/8 - - -
Sa, 06.08. 2:00 180 m 7/8 7/8 - - -
Fr, 05.08. 20:00 60 m 7/8 7/8 - - -
Ortszeit Bedeckungsgrad in Achtel und Wolkenuntergrenze
So, 07.08. 17:30 1(9000m)
So, 07.08. 17:20 1(9000m)
So, 07.08. 17:10 2
So, 07.08. 17:00 6(9000m)
So, 07.08. 16:50 6(9000m)
So, 07.08. 16:40 5
So, 07.08. 16:30 1(10500m)
So, 07.08. 16:00 keine Wolken
So, 07.08. 15:30 keine Wolken
So, 07.08. 15:00 1(10500m)
So, 07.08. 14:30 keine Wolken
Ortszeit Stationsdruck (hPa) Tendenz (hPa in 3 Std.)
So, 07.08. 14:00 918 - 1,1
So, 07.08. 8:00 919 + 0,2
So, 07.08. 2:00 920 - 0,3
Sa, 06.08. 20:00 919 - 0,4
Sa, 06.08. 14:00 920 + 0,3
Sa, 06.08. 8:00 919 + 0,9
Sa, 06.08. 2:00 917 + 1,1
Fr, 05.08. 20:00 914 + 0,7
Ortszeit Stationsdruck (hPa) Tendenz (hPa in 3 Std.)
So, 07.08. 17:30 917 - 0,8
So, 07.08. 17:20 917 keine Meldung
So, 07.08. 17:10 917 keine Meldung
So, 07.08. 17:00 917 - 0,9
So, 07.08. 16:50 917 keine Meldung
So, 07.08. 16:40 917 keine Meldung
So, 07.08. 16:30 917 - 0,9
So, 07.08. 16:00 917 - 0,9
So, 07.08. 15:30 918 - 0,9
So, 07.08. 15:00 918 - 1,1
So, 07.08. 14:30 918 - 1,2
Ortszeit Schneehöhe (cm)
So, 07.08. 14:00 0
So, 07.08. 8:00 0
So, 07.08. 2:00 0
Sa, 06.08. 20:00 0
Sa, 06.08. 14:00 0
Sa, 06.08. 8:00 0
Sa, 06.08. 2:00 0
Fr, 05.08. 20:00 0
Ortszeit Schneehöhe (cm)
So, 07.08. 17:30 0
So, 07.08. 17:20 0
So, 07.08. 17:10 0
So, 07.08. 17:00 0
So, 07.08. 16:50 0
So, 07.08. 16:40 0
So, 07.08. 16:30 0
So, 07.08. 16:00 0
So, 07.08. 15:30 0
So, 07.08. 15:00 0
So, 07.08. 14:30 0
Link zu dieser Seite / Seite empfehlen

Das Wetter in ...